| time (UTC) | temp F | wind direction | speed MPH | gust MPH | rain 1hr in | rain 24hr in | rain mn in | humidity % | barometer mb |
| 20260906214318 | 82 | 133 | 3.0 | 0.0 | 0.00 | 0.00 | 0.00 | 37 | 1001.4 |
| 20260906213819 | 82 | 176 | 6.0 | 0.0 | 0.00 | 0.00 | 0.00 | 38 | 1001.4 |
| 20260906213319 | 80 | 57 | 1.0 | 0.0 | 0.00 | 0.00 | 0.00 | 38 | 1002.0 |
| 20260906212819 | 80 | 141 | 6.0 | 0.0 | 0.00 | 0.00 | 0.00 | 38 | 1002.0 |
| 20260906212242 | 80 | 44 | 2.0 | 0.0 | 0.00 | 0.00 | 0.00 | 38 | 1002.0 |
| 20260906211744 | 80 | 101 | 2.0 | 0.0 | 0.00 | 0.00 | 0.00 | 38 | 1002.0 |
| 20260906211317 | 81 | 163 | 10.0 | 0.0 | 0.00 | 0.00 | 0.00 | 37 | 1001.7 |
| 20260906210818 | 82 | 130 | 1.0 | 0.0 | 0.00 | 0.00 | 0.00 | 37 | 1001.4 |
| 20260906210242 | 81 | 121 | 0.0 | 0.0 | 0.00 | 0.00 | 0.00 | 38 | 1001.7 |
| 20260906205817 | 81 | 53 | 2.0 | 0.0 | 0.00 | 0.00 | 0.00 | 38 | 1001.4 |
| 20260906205242 | 82 | 168 | 4.0 | 0.0 | 0.00 | 0.00 | 0.00 | 37 | 1001.4 |
| 20260906204741 | 82 | 207 | 4.0 | 0.0 | 0.00 | 0.00 | 0.00 | 37 | 1001.4 |
| 20260906204317 | 82 | 179 | 4.0 | 0.0 | 0.00 | 0.00 | 0.00 | 39 | 1001.4 |
| 20260906203739 | 80 | 71 | 3.0 | 0.0 | 0.00 | 0.00 | 0.00 | 40 | 1002.0 |
| 20260906203241 | 80 | 127 | 4.0 | 0.0 | 0.00 | 0.00 | 0.00 | 40 | 1002.0 |
| 20260906202742 | 79 | 245 | 1.0 | 0.0 | 0.00 | 0.00 | 0.00 | 40 | 1002.0 |
| 20260906202242 | 80 | 128 | 3.0 | 0.0 | 0.00 | 0.00 | 0.00 | 39 | 1002.0 |
| 20260906201743 | 80 | 115 | 1.0 | 0.0 | 0.00 | 0.00 | 0.00 | 38 | 1001.7 |
| 20260906201238 | 82 | 61 | 5.0 | 0.0 | 0.00 | 0.00 | 0.00 | 37 | 1001.4 |
| 20260906200741 | 82 | 74 | 7.0 | 0.0 | 0.00 | 0.00 | 0.00 | 36 | 1001.4 |
| 20260906200241 | 83 | 141 | 4.0 | 0.0 | 0.00 | 0.00 | 0.00 | 36 | 1001.0 |
| 20260906195736 | 82 | 48 | 3.0 | 0.0 | 0.00 | 0.00 | 0.00 | 37 | 1001.0 |
| 20260906195238 | 82 | 80 | 3.0 | 0.0 | 0.00 | 0.00 | 0.00 | 36 | 1001.4 |
| 20260906194739 | 82 | 204 | 5.0 | 0.0 | 0.00 | 0.00 | 0.00 | 37 | 1001.4 |
| 20260906194238 | 82 | 196 | 1.0 | 0.0 | 0.00 | 0.00 | 0.00 | 37 | 1001.4 |
| 20260906193738 | 81 | 222 | 3.0 | 0.0 | 0.00 | 0.00 | 0.00 | 38 | 1001.4 |
| 20260906193238 | 81 | 127 | 1.0 | 0.0 | 0.00 | 0.00 | 0.00 | 39 | 1002.0 |
| 20260906192744 | 81 | 165 | 12.0 | 0.0 | 0.00 | 0.00 | 0.00 | 38 | 1001.4 |
| 20260906192244 | 81 | 191 | 6.0 | 0.0 | 0.00 | 0.00 | 0.00 | 38 | 1001.4 |
| 20260906191804 | 82 | 179 | 7.0 | 0.0 | 0.00 | 0.00 | 0.00 | 39 | 1001.4 |
| 20260906191237 | 81 | 132 | 7.0 | 0.0 | 0.00 | 0.00 | 0.00 | 39 | 1001.7 |
| 20260906190738 | 80 | 207 | 5.0 | 0.0 | 0.00 | 0.00 | 0.00 | 40 | 1002.0 |
| 20260906190243 | 80 | 141 | 6.0 | 0.0 | 0.00 | 0.00 | 0.00 | 41 | 1002.4 |
| 20260906185738 | 81 | 158 | 5.0 | 0.0 | 0.00 | 0.00 | 0.00 | 39 | 1001.7 |
| 20260906185240 | 81 | 127 | 6.0 | 0.0 | 0.00 | 0.00 | 0.00 | 39 | 1001.7 |
| 20260906184737 | 82 | 146 | 1.0 | 0.0 | 0.00 | 0.00 | 0.00 | 37 | 1001.7 |
| 20260906184244 | 82 | 46 | 7.0 | 0.0 | 0.00 | 0.00 | 0.00 | 36 | 1002.0 |
| 20260906183740 | 82 | 146 | 0.0 | 0.0 | 0.00 | 0.00 | 0.00 | 37 | 1002.0 |
| 20260906183241 | 81 | 164 | 0.0 | 0.0 | 0.00 | 0.00 | 0.00 | 38 | 1002.0 |
| 20260906182743 | 81 | 205 | 3.0 | 0.0 | 0.00 | 0.00 | 0.00 | 38 | 1002.0 |
| 20260906182242 | 81 | 103 | 1.0 | 0.0 | 0.00 | 0.00 | 0.00 | 39 | 1002.4 |
| 20260906181742 | 81 | 96 | 3.0 | 0.0 | 0.00 | 0.00 | 0.00 | 39 | 1002.4 |
| 20260906181237 | 81 | 119 | 1.0 | 0.0 | 0.00 | 0.00 | 0.00 | 39 | 1002.4 |
| 20260906180737 | 81 | 145 | 4.0 | 0.0 | 0.00 | 0.00 | 0.00 | 39 | 1002.4 |
| 20260906180240 | 80 | 67 | 2.0 | 0.0 | 0.00 | 0.00 | 0.00 | 39 | 1003.0 |
| 20260906175737 | 80 | 173 | 4.0 | 0.0 | 0.00 | 0.00 | 0.00 | 39 | 1002.7 |
| 20260906175238 | 80 | 148 | 3.0 | 0.0 | 0.00 | 0.00 | 0.00 | 38 | 1002.7 |
| 20260906174740 | 80 | 137 | 2.0 | 0.0 | 0.00 | 0.00 | 0.00 | 38 | 1003.0 |
| 20260906174241 | 80 | 46 | 1.0 | 0.0 | 0.00 | 0.00 | 0.00 | 38 | 1003.0 |
| 20260906173742 | 80 | 84 | 1.0 | 0.0 | 0.00 | 0.00 | 0.00 | 39 | 1003.0 |
| 20260906173241 | 80 | 248 | 12.0 | 0.0 | 0.00 | 0.00 | 0.00 | 39 | 1002.7 |
| 20260906172737 | 81 | 173 | 3.0 | 0.0 | 0.00 | 0.00 | 0.00 | 38 | 1002.7 |
| 20260906172305 | 80 | 244 | 4.0 | 0.0 | 0.00 | 0.00 | 0.00 | 38 | 1002.7 |
| 20260906171759 | 80 | 49 | 3.0 | 0.0 | 0.00 | 0.00 | 0.00 | 38 | 1003.4 |
| 20260906171301 | 80 | 144 | 3.0 | 0.0 | 0.00 | 0.00 | 0.00 | 37 | 1003.7 |
| 20260906170758 | 80 | 38 | 2.0 | 0.0 | 0.00 | 0.00 | 0.00 | 38 | 1003.7 |
| 20260906170258 | 80 | 205 | 7.0 | 0.0 | 0.00 | 0.00 | 0.00 | 37 | 1003.7 |
| 20260906165756 | 80 | 140 | 3.0 | 0.0 | 0.00 | 0.00 | 0.00 | 37 | 1003.0 |
| 20260906165259 | 80 | 63 | 2.0 | 0.0 | 0.00 | 0.00 | 0.00 | 37 | 1003.4 |
| 20260906164801 | 79 | 75 | 0.0 | 0.0 | 0.00 | 0.00 | 0.00 | 37 | 1003.7 |
| 20260906164315 | 79 | 214 | 2.0 | 0.0 | 0.00 | 0.00 | 0.00 | 36 | 1003.7 |
| 20260906163814 | 79 | 198 | 3.0 | 0.0 | 0.00 | 0.00 | 0.00 | 36 | 1003.7 |
| 20260906163240 | 78 | 144 | 1.0 | 0.0 | 0.00 | 0.00 | 0.00 | 36 | 1003.7 |
| 20260906162738 | 78 | 196 | 10.0 | 0.0 | 0.00 | 0.00 | 0.00 | 36 | 1003.7 |
| 20260906162219 | 78 | 202 | 3.0 | 0.0 | 0.00 | 0.00 | 0.00 | 36 | 1004.1 |
| 20260906161737 | 77 | 211 | 5.0 | 0.0 | 0.00 | 0.00 | 0.00 | 36 | 1004.4 |
| 20260906161339 | 77 | 188 | 1.0 | 0.0 | 0.00 | 0.00 | 0.00 | 36 | 1004.4 |
| 20260906160838 | 77 | 188 | 4.0 | 0.0 | 0.00 | 0.00 | 0.00 | 37 | 1004.1 |
| 20260906160340 | 77 | 232 | 1.0 | 0.0 | 0.00 | 0.00 | 0.00 | 37 | 1004.4 |
| 20260906155820 | 77 | 230 | 3.0 | 0.0 | 0.00 | 0.00 | 0.00 | 37 | 1003.4 |
| 20260906155330 | 77 | 83 | 0.0 | 0.0 | 0.00 | 0.00 | 0.00 | 38 | 1003.4 |
| 20260906154837 | 76 | 84 | 0.0 | 0.0 | 0.00 | 0.00 | 0.00 | 40 | 1003.4 |
| 20260906154353 | 75 | 83 | 0.0 | 0.0 | 0.00 | 0.00 | 0.00 | 42 | 1003.7 |
| 20260906153844 | 74 | 191 | 1.0 | 0.0 | 0.00 | 0.00 | 0.00 | 41 | 1004.1 |
| 20260906153320 | 74 | 209 | 1.0 | 0.0 | 0.00 | 0.00 | 0.00 | 42 | 1003.7 |
| 20260906152840 | 73 | 274 | 0.0 | 0.0 | 0.00 | 0.00 | 0.00 | 43 | 1004.4 |
| 20260906152400 | 72 | 355 | 0.0 | 0.0 | 0.00 | 0.00 | 0.00 | 44 | 1004.4 |
| 20260906151813 | 71 | 46 | 1.0 | 0.0 | 0.00 | 0.00 | 0.00 | 46 | 1004.7 |
| 20260906151336 | 70 | 34 | 2.0 | 0.0 | 0.00 | 0.00 | 0.00 | 46 | 1005.1 |
| 20260906150904 | 69 | 13 | 1.0 | 0.0 | 0.00 | 0.00 | 0.00 | 46 | 1005.8 |
| 20260906150428 | 69 | 355 | 2.0 | 0.0 | 0.00 | 0.00 | 0.00 | 47 | 1005.8 |
| 20260906145951 | 68 | 346 | 3.0 | 0.0 | 0.00 | 0.00 | 0.00 | 48 | 1006.4 |
| 20260906145400 | 68 | 5 | 4.0 | 0.0 | 0.00 | 0.00 | 0.00 | 49 | 1006.4 |
| 20260906144820 | 67 | 23 | 5.0 | 0.0 | 0.00 | 0.00 | 0.00 | 50 | 1006.4 |
| 20260906144349 | 66 | 355 | 5.0 | 0.0 | 0.00 | 0.00 | 0.00 | 51 | 1007.1 |
| 20260906143816 | 65 | 28 | 4.0 | 0.0 | 0.00 | 0.00 | 0.00 | 52 | 1007.1 |
| 20260906143338 | 64 | 342 | 5.0 | 0.0 | 0.00 | 0.00 | 0.00 | 54 | 1007.5 |
| 20260906142803 | 63 | 360 | 2.0 | 0.0 | 0.00 | 0.00 | 0.00 | 55 | 1007.5 |
| 20260906142325 | 63 | 355 | 1.0 | 0.0 | 0.00 | 0.00 | 0.00 | 56 | 1007.5 |
| 20260906141848 | 62 | 350 | 2.0 | 0.0 | 0.00 | 0.00 | 0.00 | 57 | 1008.1 |
| 20260906141311 | 62 | 16 | 2.0 | 0.0 | 0.00 | 0.00 | 0.00 | 57 | 1007.8 |
| 20260906140847 | 62 | 348 | 1.0 | 0.0 | 0.00 | 0.00 | 0.00 | 57 | 1008.1 |
| 20260906140314 | 62 | 345 | 3.0 | 0.0 | 0.00 | 0.00 | 0.00 | 58 | 1008.1 |
| 20260906135849 | 61 | 311 | 2.0 | 0.0 | 0.00 | 0.00 | 0.00 | 60 | 1007.1 |
| 20260906135325 | 60 | 346 | 5.0 | 0.0 | 0.00 | 0.00 | 0.00 | 61 | 1007.5 |
| 20260906134813 | 59 | 360 | 2.0 | 0.0 | 0.00 | 0.00 | 0.00 | 62 | 1007.5 |
| 20260906134349 | 58 | 5 | 2.0 | 0.0 | 0.00 | 0.00 | 0.00 | 62 | 1007.8 |
| 20260906133832 | 58 | 24 | 3.0 | 0.0 | 0.00 | 0.00 | 0.00 | 62 | 1007.8 |
| 20260906133317 | 58 | 360 | 2.0 | 0.0 | 0.00 | 0.00 | 0.00 | 63 | 1008.1 |
| 20260906132806 | 58 | 15 | 3.0 | 0.0 | 0.00 | 0.00 | 0.00 | 63 | 1007.8 |
| 20260906132251 | 58 | 300 | 5.0 | 0.0 | 0.00 | 0.00 | 0.00 | 63 | 1007.8 |
| 20260906131844 | 58 | 355 | 2.0 | 0.0 | 0.00 | 0.00 | 0.00 | 63 | 1007.8 |
| 20260906131337 | 58 | 355 | 4.0 | 0.0 | 0.00 | 0.00 | 0.00 | 63 | 1007.8 |
| 20260906130822 | 58 | 5 | 3.0 | 0.0 | 0.00 | 0.00 | 0.00 | 63 | 1007.8 |
| 20260906130313 | 58 | 9 | 3.0 | 0.0 | 0.00 | 0.00 | 0.00 | 63 | 1007.8 |
| 20260906125750 | 58 | 11 | 2.0 | 0.0 | 0.00 | 0.00 | 0.00 | 62 | 1006.8 |
| 20260906125239 | 58 | 315 | 4.0 | 0.0 | 0.00 | 0.00 | 0.00 | 62 | 1006.8 |
| 20260906124730 | 58 | 333 | 3.0 | 0.0 | 0.00 | 0.00 | 0.00 | 62 | 1006.8 |
| 20260906124224 | 58 | 360 | 4.0 | 0.0 | 0.00 | 0.00 | 0.00 | 62 | 1006.8 |
| 20260906123714 | 59 | 11 | 4.0 | 0.0 | 0.00 | 0.00 | 0.00 | 61 | 1006.1 |
| 20260906123215 | 59 | 308 | 6.0 | 0.0 | 0.00 | 0.00 | 0.00 | 61 | 1006.1 |
| 20260906122715 | 59 | 336 | 6.0 | 0.0 | 0.00 | 0.00 | 0.00 | 61 | 1006.1 |
| 20260906122215 | 59 | 295 | 4.0 | 0.0 | 0.00 | 0.00 | 0.00 | 61 | 1006.1 |
| 20260906121714 | 59 | 29 | 4.0 | 0.0 | 0.00 | 0.00 | 0.00 | 61 | 1006.1 |
| 20260906121213 | 59 | 344 | 3.0 | 0.0 | 0.00 | 0.00 | 0.00 | 61 | 1006.1 |
| 20260906120704 | 59 | 332 | 5.0 | 0.0 | 0.00 | 0.00 | 0.00 | 62 | 1006.4 |
| 20260906120215 | 59 | 319 | 3.0 | 0.0 | 0.00 | 0.00 | 0.00 | 62 | 1006.1 |
| 20260906115701 | 59 | 9 | 6.0 | 0.0 | 0.00 | 0.00 | 0.00 | 61 | 1005.1 |
| 20260906115202 | 59 | 355 | 4.0 | 0.0 | 0.00 | 0.00 | 0.00 | 61 | 1005.1 |
| 20260906114703 | 60 | 314 | 1.0 | 0.0 | 0.00 | 0.00 | 0.00 | 60 | 1004.7 |
| 20260906114202 | 60 | 318 | 6.0 | 0.0 | 0.00 | 0.00 | 0.00 | 60 | 1004.7 |
| 20260906113705 | 60 | 288 | 4.0 | 0.0 | 0.00 | 0.00 | 0.00 | 61 | 1004.7 |
| 20260906113201 | 59 | 43 | 4.0 | 0.0 | 0.00 | 0.00 | 0.00 | 61 | 1005.4 |
| 20260906112659 | 59 | 302 | 2.0 | 0.0 | 0.00 | 0.00 | 0.00 | 61 | 1005.1 |
| 20260906112200 | 59 | 311 | 7.0 | 0.0 | 0.00 | 0.00 | 0.00 | 62 | 1005.1 |
| 20260906111659 | 59 | 292 | 5.0 | 0.0 | 0.00 | 0.00 | 0.00 | 61 | 1005.1 |
| 20260906111159 | 59 | 294 | 1.0 | 0.0 | 0.00 | 0.00 | 0.00 | 61 | 1005.1 |
| 20260906110658 | 59 | 293 | 5.0 | 0.0 | 0.00 | 0.00 | 0.00 | 62 | 1005.4 |
| 20260906110159 | 59 | 323 | 4.0 | 0.0 | 0.00 | 0.00 | 0.00 | 62 | 1005.1 |
| 20260906105658 | 59 | 21 | 4.0 | 0.0 | 0.00 | 0.00 | 0.00 | 62 | 1004.7 |
| 20260906105159 | 59 | 311 | 2.0 | 0.0 | 0.00 | 0.00 | 0.00 | 62 | 1004.7 |
| 20260906104657 | 59 | 327 | 1.0 | 0.0 | 0.00 | 0.00 | 0.00 | 62 | 1004.7 |
| 20260906104159 | 59 | 299 | 3.0 | 0.0 | 0.00 | 0.00 | 0.00 | 63 | 1004.7 |
| 20260906103658 | 58 | 285 | 3.0 | 0.0 | 0.00 | 0.00 | 0.00 | 63 | 1004.7 |
| 20260906103159 | 58 | 309 | 5.0 | 0.0 | 0.00 | 0.00 | 0.00 | 63 | 1005.1 |
| 20260906102656 | 58 | 277 | 2.0 | 0.0 | 0.00 | 0.00 | 0.00 | 63 | 1005.1 |
| 20260906102157 | 58 | 344 | 4.0 | 0.0 | 0.00 | 0.00 | 0.00 | 63 | 1005.1 |
| 20260906101656 | 58 | 342 | 2.0 | 0.0 | 0.00 | 0.00 | 0.00 | 63 | 1005.1 |
| 20260906101158 | 59 | 9 | 3.0 | 0.0 | 0.00 | 0.00 | 0.00 | 63 | 1004.7 |
| 20260906100659 | 59 | 318 | 3.0 | 0.0 | 0.00 | 0.00 | 0.00 | 63 | 1004.7 |
| 20260906100156 | 59 | 13 | 3.0 | 0.0 | 0.00 | 0.00 | 0.00 | 63 | 1004.7 |
| 20260906095656 | 59 | 360 | 3.0 | 0.0 | 0.00 | 0.00 | 0.00 | 63 | 1004.7 |
| 20260906095157 | 59 | 31 | 4.0 | 0.0 | 0.00 | 0.00 | 0.00 | 63 | 1004.7 |
| 20260906094655 | 59 | 321 | 2.0 | 0.0 | 0.00 | 0.00 | 0.00 | 63 | 1004.7 |
| 20260906094154 | 59 | 26 | 3.0 | 0.0 | 0.00 | 0.00 | 0.00 | 62 | 1005.1 |
| 20260906093653 | 60 | 9 | 3.0 | 0.0 | 0.00 | 0.00 | 0.00 | 63 | 1005.1 |
| 20260906093154 | 60 | 287 | 0.0 | 0.0 | 0.00 | 0.00 | 0.00 | 62 | 1005.1 |
| 20260906092653 | 60 | 287 | 1.0 | 0.0 | 0.00 | 0.00 | 0.00 | 62 | 1005.1 |
| 20260906092153 | 60 | 306 | 2.0 | 0.0 | 0.00 | 0.00 | 0.00 | 62 | 1005.1 |
| 20260906091652 | 60 | 306 | 0.0 | 0.0 | 0.00 | 0.00 | 0.00 | 62 | 1005.1 |
| 20260906091154 | 60 | 311 | 2.0 | 0.0 | 0.00 | 0.00 | 0.00 | 62 | 1005.1 |
| 20260906090653 | 60 | 327 | 0.0 | 0.0 | 0.00 | 0.00 | 0.00 | 62 | 1005.1 |
| 20260906090152 | 61 | 340 | 2.0 | 0.0 | 0.00 | 0.00 | 0.00 | 62 | 1004.4 |
| 20260906085653 | 61 | 293 | 1.0 | 0.0 | 0.00 | 0.00 | 0.00 | 62 | 1004.7 |
| 20260906085152 | 61 | 284 | 3.0 | 0.0 | 0.00 | 0.00 | 0.00 | 62 | 1004.7 |
| 20260906084651 | 61 | 285 | 1.0 | 0.0 | 0.00 | 0.00 | 0.00 | 62 | 1004.7 |
| 20260906084151 | 61 | 284 | 1.0 | 0.0 | 0.00 | 0.00 | 0.00 | 62 | 1004.7 |
| 20260906083652 | 62 | 298 | 2.0 | 0.0 | 0.00 | 0.00 | 0.00 | 62 | 1004.7 |
| 20260906083151 | 62 | 277 | 3.0 | 0.0 | 0.00 | 0.00 | 0.00 | 62 | 1004.7 |
| 20260906082649 | 62 | 294 | 2.0 | 0.0 | 0.00 | 0.00 | 0.00 | 62 | 1004.7 |
| 20260906082150 | 62 | 250 | 4.0 | 0.0 | 0.00 | 0.00 | 0.00 | 62 | 1004.7 |
| 20260906081655 | 62 | 318 | 2.0 | 0.0 | 0.00 | 0.00 | 0.00 | 62 | 1004.4 |
| 20260906081151 | 62 | 288 | 4.0 | 0.0 | 0.00 | 0.00 | 0.00 | 62 | 1004.4 |
| 20260906080648 | 63 | 325 | 2.0 | 0.0 | 0.00 | 0.00 | 0.00 | 62 | 1004.4 |
| 20260906080152 | 63 | 319 | 2.0 | 0.0 | 0.00 | 0.00 | 0.00 | 61 | 1004.4 |
| 20260906075648 | 63 | 355 | 3.0 | 0.0 | 0.00 | 0.00 | 0.00 | 61 | 1004.7 |
| 20260906075148 | 63 | 49 | 5.0 | 0.0 | 0.00 | 0.00 | 0.00 | 61 | 1004.7 |
| 20260906074647 | 64 | 360 | 5.0 | 0.0 | 0.00 | 0.00 | 0.00 | 61 | 1004.4 |
| 20260906074148 | 64 | 330 | 3.0 | 0.0 | 0.00 | 0.00 | 0.00 | 60 | 1004.4 |
| 20260906073646 | 64 | 350 | 8.0 | 0.0 | 0.00 | 0.00 | 0.00 | 61 | 1004.4 |
| 20260906073146 | 63 | 17 | 6.0 | 0.0 | 0.00 | 0.00 | 0.00 | 61 | 1004.7 |
| 20260906072647 | 63 | 332 | 3.0 | 0.0 | 0.00 | 0.00 | 0.00 | 60 | 1004.7 |
| 20260906072146 | 63 | 306 | 2.0 | 0.0 | 0.00 | 0.00 | 0.00 | 60 | 1004.7 |
| 20260906071646 | 63 | 17 | 3.0 | 0.0 | 0.00 | 0.00 | 0.00 | 60 | 1004.7 |
| 20260906071145 | 63 | 306 | 3.0 | 0.0 | 0.00 | 0.00 | 0.00 | 61 | 1004.7 |
| 20260906070648 | 63 | 321 | 1.0 | 0.0 | 0.00 | 0.00 | 0.00 | 61 | 1004.7 |
| 20260906070148 | 63 | 304 | 3.0 | 0.0 | 0.00 | 0.00 | 0.00 | 62 | 1005.1 |
| 20260906065644 | 63 | 17 | 1.0 | 0.0 | 0.00 | 0.00 | 0.00 | 62 | 1004.1 |
| 20260906065144 | 63 | 322 | 3.0 | 0.0 | 0.00 | 0.00 | 0.00 | 62 | 1004.1 |
| 20260906064642 | 63 | 345 | 3.0 | 0.0 | 0.00 | 0.00 | 0.00 | 61 | 1004.1 |
| 20260906064144 | 64 | 298 | 0.0 | 0.0 | 0.00 | 0.00 | 0.00 | 61 | 1004.1 |
| 20260906063643 | 64 | 311 | 0.0 | 0.0 | 0.00 | 0.00 | 0.00 | 60 | 1004.1 |
| 20260906063144 | 65 | 292 | 0.0 | 0.0 | 0.00 | 0.00 | 0.00 | 60 | 1003.7 |
| 20260906062643 | 65 | 319 | 2.0 | 0.0 | 0.00 | 0.00 | 0.00 | 60 | 1003.7 |
| 20260906062143 | 65 | 311 | 4.0 | 0.0 | 0.00 | 0.00 | 0.00 | 60 | 1004.1 |
| 20260906061642 | 65 | 298 | 3.0 | 0.0 | 0.00 | 0.00 | 0.00 | 60 | 1003.7 |
| 20260906061141 | 64 | 295 | 4.0 | 0.0 | 0.00 | 0.00 | 0.00 | 60 | 1003.7 |
| 20260906060743 | 65 | 296 | 3.0 | 0.0 | 0.00 | 0.00 | 0.00 | 60 | 1003.7 |
| 20260906060242 | 65 | 345 | 1.0 | 0.0 | 0.00 | 0.00 | 0.00 | 60 | 1003.7 |
| 20260906055740 | 65 | 355 | 3.0 | 0.0 | 0.00 | 0.00 | 0.00 | 60 | 1003.7 |
| 20260906055242 | 64 | 277 | 7.0 | 0.0 | 0.00 | 0.00 | 0.00 | 61 | 1004.1 |
| 20260906054741 | 64 | 345 | 2.0 | 0.0 | 0.00 | 0.00 | 0.00 | 61 | 1003.7 |
| 20260906054241 | 64 | 355 | 0.0 | 0.0 | 0.00 | 0.00 | 0.00 | 62 | 1003.7 |
| 20260906053739 | 65 | 337 | 1.0 | 0.0 | 0.00 | 0.00 | 0.00 | 61 | 1004.1 |
| 20260906053241 | 65 | 332 | 1.0 | 0.0 | 0.00 | 0.00 | 0.00 | 62 | 1004.1 |
| 20260906052740 | 65 | 360 | 2.0 | 0.0 | 0.00 | 0.00 | 0.00 | 62 | 1004.1 |
| 20260906052240 | 64 | 338 | 3.0 | 0.0 | 0.00 | 0.00 | 0.00 | 62 | 1004.7 |
| 20260906051740 | 64 | 350 | 4.0 | 0.0 | 0.00 | 0.00 | 0.00 | 62 | 1004.7 |
| 20260906051238 | 64 | 19 | 4.0 | 0.0 | 0.00 | 0.00 | 0.00 | 62 | 1004.7 |
| 20260906050737 | 64 | 360 | 4.0 | 0.0 | 0.00 | 0.00 | 0.00 | 62 | 1004.4 |
| 20260906050238 | 65 | 323 | 2.0 | 0.0 | 0.00 | 0.00 | 0.00 | 62 | 1004.1 |
| 20260906045738 | 67 | 19 | 3.0 | 0.0 | 0.00 | 0.00 | 0.00 | 61 | 1003.7 |
| 20260906045236 | 67 | 153 | 0.0 | 0.0 | 0.00 | 0.00 | 0.00 | 59 | 1004.1 |
| 20260906044736 | 67 | 321 | 2.0 | 0.0 | 0.00 | 0.00 | 0.00 | 58 | 1004.1 |
| 20260906044236 | 68 | 25 | 9.0 | 0.0 | 0.00 | 0.00 | 0.00 | 56 | 1003.4 |
| 20260906043735 | 68 | 355 | 4.0 | 0.0 | 0.00 | 0.00 | 0.00 | 55 | 1003.0 |
| 20260906043236 | 68 | 29 | 10.0 | 0.0 | 0.00 | 0.00 | 0.00 | 54 | 1003.0 |
| 20260906042735 | 68 | 355 | 9.0 | 0.0 | 0.00 | 0.00 | 0.00 | 53 | 1003.0 |
| 20260906042235 | 68 | 265 | 10.0 | 0.0 | 0.00 | 0.00 | 0.00 | 54 | 1003.0 |
| 20260906041734 | 68 | 284 | 4.0 | 0.0 | 0.00 | 0.00 | 0.00 | 53 | 1003.0 |
| 20260906041234 | 68 | 341 | 15.0 | 0.0 | 0.00 | 0.00 | 0.00 | 52 | 1002.7 |
| 20260906040735 | 69 | 15 | 5.0 | 0.0 | 0.00 | 0.00 | 0.00 | 51 | 1002.7 |
| 20260906040234 | 70 | 355 | 6.0 | 0.0 | 0.00 | 0.00 | 0.00 | 50 | 1002.4 |
| 20260906035733 | 70 | 11 | 2.0 | 0.0 | 0.00 | 0.00 | 0.00 | 48 | 1003.7 |
| 20260906035233 | 70 | 13 | 13.0 | 0.0 | 0.00 | 0.00 | 0.00 | 47 | 1003.7 |
| 20260906034733 | 70 | 314 | 6.0 | 0.0 | 0.00 | 0.00 | 0.00 | 46 | 1003.7 |
| 20260906034233 | 70 | 305 | 5.0 | 0.0 | 0.00 | 0.00 | 0.00 | 45 | 1003.7 |
| 20260906033734 | 70 | 281 | 3.0 | 0.0 | 0.00 | 0.00 | 0.00 | 45 | 1004.1 |
| 20260906033231 | 70 | 331 | 2.0 | 0.0 | 0.00 | 0.00 | 0.00 | 46 | 1003.7 |
| 20260906032733 | 69 | 5 | 4.0 | 0.0 | 0.00 | 0.00 | 0.00 | 46 | 1003.7 |
| 20260906032233 | 69 | 310 | 4.0 | 0.0 | 0.00 | 0.00 | 0.00 | 47 | 1003.7 |
| 20260906031733 | 69 | 340 | 5.0 | 0.0 | 0.00 | 0.00 | 0.00 | 47 | 1003.4 |
| 20260906031233 | 69 | 360 | 5.0 | 0.0 | 0.00 | 0.00 | 0.00 | 47 | 1003.4 |
| 20260906030731 | 69 | 336 | 3.0 | 0.0 | 0.00 | 0.00 | 0.00 | 48 | 1003.4 |
| 20260906030231 | 68 | 320 | 4.0 | 0.0 | 0.00 | 0.00 | 0.00 | 48 | 1003.0 |
| 20260906025730 | 68 | 360 | 6.0 | 0.0 | 0.00 | 0.00 | 0.00 | 48 | 1004.4 |
| 20260906025231 | 68 | 360 | 4.0 | 0.0 | 0.00 | 0.00 | 0.00 | 47 | 1004.4 |
| 20260906024732 | 69 | 316 | 3.0 | 0.0 | 0.00 | 0.00 | 0.00 | 47 | 1004.1 |
| 20260906024230 | 69 | 270 | 2.0 | 0.0 | 0.00 | 0.00 | 0.00 | 47 | 1004.1 |
| 20260906023730 | 69 | 5 | 6.0 | 0.0 | 0.00 | 0.00 | 0.00 | 47 | 1004.1 |
| 20260906023230 | 70 | 350 | 9.0 | 0.0 | 0.00 | 0.00 | 0.00 | 46 | 1004.1 |
| 20260906022730 | 70 | 19 | 6.0 | 0.0 | 0.00 | 0.00 | 0.00 | 45 | 1003.7 |
| 20260906022230 | 71 | 349 | 4.0 | 0.0 | 0.00 | 0.00 | 0.00 | 44 | 1003.4 |
| 20260906021729 | 71 | 16 | 7.0 | 0.0 | 0.00 | 0.00 | 0.00 | 43 | 1003.4 |
| 20260906021230 | 72 | 22 | 9.0 | 0.0 | 0.00 | 0.00 | 0.00 | 42 | 1003.0 |
| 20260906020729 | 72 | 34 | 6.0 | 0.0 | 0.00 | 0.00 | 0.00 | 41 | 1003.0 |
| 20260906020229 | 73 | 360 | 5.0 | 0.0 | 0.00 | 0.00 | 0.00 | 40 | 1002.7 |
| 20260906015729 | 73 | 276 | 3.0 | 0.0 | 0.00 | 0.00 | 0.00 | 39 | 1004.7 |
| 20260906015230 | 74 | 291 | 3.0 | 0.0 | 0.00 | 0.00 | 0.00 | 38 | 1005.1 |
| 20260906014729 | 74 | 283 | 4.0 | 0.0 | 0.00 | 0.00 | 0.00 | 37 | 1004.7 |
| 20260906014230 | 75 | 270 | 7.0 | 0.0 | 0.00 | 0.00 | 0.00 | 36 | 1004.7 |
| 20260906013727 | 75 | 330 | 5.0 | 0.0 | 0.00 | 0.00 | 0.00 | 36 | 1004.7 |
| 20260906013227 | 75 | 335 | 4.0 | 0.0 | 0.00 | 0.00 | 0.00 | 36 | 1004.7 |
| 20260906012727 | 75 | 328 | 3.0 | 0.0 | 0.00 | 0.00 | 0.00 | 36 | 1004.7 |
| 20260906012228 | 76 | 295 | 2.0 | 0.0 | 0.00 | 0.00 | 0.00 | 36 | 1004.4 |
| 20260906011727 | 76 | 304 | 6.0 | 0.0 | 0.00 | 0.00 | 0.00 | 36 | 1004.4 |
| 20260906011228 | 76 | 341 | 5.0 | 0.0 | 0.00 | 0.00 | 0.00 | 36 | 1004.4 |
| 20260906010725 | 76 | 331 | 6.0 | 0.0 | 0.00 | 0.00 | 0.00 | 35 | 1004.4 |
| 20260906010227 | 76 | 277 | 5.0 | 0.0 | 0.00 | 0.00 | 0.00 | 35 | 1004.4 |
| 20260906005726 | 76 | 265 | 7.0 | 0.0 | 0.00 | 0.00 | 0.00 | 35 | 1005.1 |
| 20260906005224 | 77 | 314 | 6.0 | 0.0 | 0.00 | 0.00 | 0.00 | 35 | 1004.7 |
| 20260906004732 | 77 | 244 | 6.0 | 0.0 | 0.00 | 0.00 | 0.00 | 34 | 1005.1 |
| 20260906004225 | 77 | 284 | 5.0 | 0.0 | 0.00 | 0.00 | 0.00 | 34 | 1004.7 |
| 20260906003724 | 78 | 302 | 5.0 | 0.0 | 0.00 | 0.00 | 0.00 | 33 | 1004.4 |
| 20260906003225 | 78 | 5 | 4.0 | 0.0 | 0.00 | 0.00 | 0.00 | 33 | 1004.4 |
| 20260906002725 | 78 | 340 | 11.0 | 0.0 | 0.00 | 0.00 | 0.00 | 32 | 1004.1 |
| 20260906002224 | 79 | 5 | 6.0 | 0.0 | 0.00 | 0.00 | 0.00 | 32 | 1004.1 |
| 20260906001724 | 81 | 33 | 5.0 | 0.0 | 0.00 | 0.00 | 0.00 | 30 | 1003.7 |
| 20260906001224 | 81 | 60 | 0.0 | 0.0 | 0.00 | 0.00 | 0.00 | 29 | 1003.7 |
| 20260906000724 | 81 | 134 | 0.0 | 0.0 | 0.00 | 0.00 | 0.00 | 28 | 1003.7 |
| 20260906000224 | 81 | 133 | 3.0 | 0.0 | 0.00 | 0.00 | 0.00 | 28 | 1003.0 |
| 20260905235724 | 82 | 73 | 1.0 | 0.0 | 0.00 | 0.00 | 0.00 | 28 | 1003.0 |
| 20260905235223 | 82 | 134 | 2.0 | 0.0 | 0.00 | 0.00 | 0.00 | 28 | 1003.0 |
| 20260905234723 | 82 | 135 | 4.0 | 0.0 | 0.00 | 0.00 | 0.00 | 28 | 1003.0 |
| 20260905234224 | 83 | 150 | 6.0 | 0.0 | 0.00 | 0.00 | 0.00 | 27 | 1002.4 |
| 20260905233723 | 84 | 113 | 0.0 | 0.0 | 0.00 | 0.00 | 0.00 | 27 | 1002.4 |
| 20260905233223 | 84 | 161 | 2.0 | 0.0 | 0.00 | 0.00 | 0.00 | 27 | 1002.4 |
| 20260905232724 | 84 | 25 | 4.0 | 0.0 | 0.00 | 0.00 | 0.00 | 27 | 1002.4 |
| 20260905232223 | 84 | 47 | 0.0 | 0.0 | 0.00 | 0.00 | 0.00 | 27 | 1002.4 |
| 20260905231722 | 84 | 289 | 6.0 | 0.0 | 0.00 | 0.00 | 0.00 | 26 | 1001.7 |
| 20260905231224 | 85 | 355 | 3.0 | 0.0 | 0.00 | 0.00 | 0.00 | 27 | 1002.4 |
| 20260905230723 | 83 | 297 | 2.0 | 0.0 | 0.00 | 0.00 | 0.00 | 27 | 1002.4 |
| 20260905230222 | 83 | 194 | 6.0 | 0.0 | 0.00 | 0.00 | 0.00 | 27 | 1002.4 |
| 20260905225723 | 82 | 241 | 6.0 | 0.0 | 0.00 | 0.00 | 0.00 | 27 | 1002.7 |
| 20260905225223 | 82 | 190 | 11.0 | 0.0 | 0.00 | 0.00 | 0.00 | 28 | 1002.7 |
| 20260905224722 | 82 | 194 | 14.0 | 0.0 | 0.00 | 0.00 | 0.00 | 27 | 1002.7 |
| 20260905224222 | 83 | 226 | 8.0 | 0.0 | 0.00 | 0.00 | 0.00 | 27 | 1002.4 |